Regional Weather Roundup
Issued by NWS

Home | Current Version | Previous Version | Text Only | Print | Product List | Glossary Off
Versions: 1 2 3 4 5 6 7 8 9 10 11 12 13 14 15 16 17 18 19 20 21 22 23 24 25 26 27 28 29 30 31 32 33 34 35 36 37 38 39 40 41 42 43 44 45 46 47 48 49 50

000
ASUS43 KFSD 261502
RWRSD

WEATHER ROUNDUP FOR SOUTH DAKOTA
NATIONAL WEATHER SERVICE SIOUX FALLS SD
1000 AM CDT TUE MAY 26 2015

NOTE: "FAIR" INDICATES FEW OR NO CLOUDS BELOW 12,000 FEET WITH NO
SIGNIFICANT WEATHER AND/OR OBSTRUCTIONS TO VISIBILITY.


SDZ001>005-009-010-012>017-261600-
NORTHWEST AND NORTH CENTRAL SOUTH DAKOTA

CITY           SKY/WX    TMP DP  RH WIND       PRES   REMARKS
FAITH            N/A     61  51  70 W7        29.99S
MOBRIDGE       SUNNY     63  56  78 NW13      29.91S
$$

SDZ012>016-024>037-041>051-057-063-072>074-261600-
SOUTHWEST AND SOUTH CENTRAL SOUTH DAKOTA

CITY           SKY/WX    TMP DP  RH WIND       PRES   REMARKS
RAPID CTY ARPT CLOUDY    56  53  90 SW7       29.99F
PIERRE         SUNNY     65  52  62 NW14      29.92F
CUSTER         CLOUDY    49  45  86 CALM      30.04R
ELLSWORTH AFB  PTSUNNY   55  55 100 SW10      29.99
PHILIP         MOSUNNY   65  53  65 VRB3      29.97S
PINE RIDGE     CLOUDY    55  49  80 CALM      30.01R
WINNER         PTSUNNY   61  53  75 NW10      29.94S
$$

SDZ004>011-016>023-039-040-261600-
NORTHEAST SOUTH DAKOTA

CITY           SKY/WX    TMP DP  RH WIND       PRES   REMARKS
ABERDEEN       MOSUNNY   66  55  67 N9        29.88S
WATERTOWN      CLOUDY    59  51  75 N7        29.86S
BROOKINGS      CLOUDY    57  52  82 NE14      29.86F
$$

SDZ017-020-022-023-036>040-048>070-261600-
SOUTHEAST SOUTH DAKOTA

CITY           SKY/WX    TMP DP  RH WIND       PRES   REMARKS
SIOUX FALLS    CLOUDY    56  52  86 NE12      29.83F
HURON          MOSUNNY   63  51  65 N6        29.87F
CHAMBERLAIN    PTSUNNY   60  51  73 N10       29.92S
MITCHELL       CLOUDY    62  52  69 N13       29.87F
YANKTON        CLOUDY    55  52  88 N9        29.83F
$$

ABBREVIATIONS USED IN REMARKS
   TC - TEMPERATURE IN CELSIUS
  WCI - WIND CHILL INDEX
   HX - HEAT INDEX
  VSB - VISIBILITY




USA.gov is the U.S. government's official web portal to all federal, state and local government web resources and services.